Retour au catalogue

CZ-4 DEB

ActifSSO
NORAD 35330·DEBRIS·🇨🇳 China

Lancé Oct 14, 1999 depuis Taiyuan Satellite Launch Center

Loading…

Prochains Passages (prochaines 24 heures)

TLE

FraisSource: Space-Track

Époque: Sep 13, 2026, 09:02 UTC

1 35330U 99057SJ  26256.37695518  .00000414  00000-0  12971-3 0  9991
2 35330  98.6366 308.6803 0081638 112.6613 248.3236 14.43959551233369

Suivez CZ-4 DEB en temps réel avec AllMySat

Download on the App Store